Notices

What’s New in latest Release from January 14th 2021:

·       In Historical Hourly Data Report, users can switch between Local Standard Time (LST) and Universal Time Coordinates (UTC) time.

·       In Historical Hourly Data Report, we have an addition of a new column to display hourly precipitation data for the stations where the data are available, from 2001 onwards.

·       Expanded the Search Options of the Canadian Historical Weather Radar, users now able to select 24 hours (1 image every hour) image viewing duration.

Please note that the IDF dataset is available through this link: Intensity-Duration-Frequency (IDF) Files .

Hourly Data Report for August 07, 2020

OTTAWA INTL A
ONTARIO
Current Station Operator: NAVCAN

45°19'00.000" N
75°40'00.000" W
114.90 m
6106001
71628
YOW

Download Data

Hourly Data (August 2020)
Hourly Data Report for August 7, 2020
TIME
LST
Temp Definition
°C
Dew Point Definition
°C
Rel Hum Definition
%
Precip. Amount Definition
mm

Wind Dir Definition
10's deg

Wind Spd Definition
km/h
Visibility Definition
km
Stn Press Definition
kPa
Hmdx Definition


Wind Chill Definition


Weather Definition


00:00 16.1 13.3 83   21 8 24.1 100.68     LegendNANA
01:00 15.0 13.2 89   23 4 24.1 100.68     Clear
02:00 13.4 12.8 96   25 4 24.1 100.68     LegendNANA
03:00 13.9 13.4 97   22 5 24.1 100.69     LegendNANA
04:00 12.2 11.7 97   36 3 24.1 100.70     Mainly Clear
05:00 12.3 12.0 98   36 1 24.1 100.73     LegendNANA
06:00 14.4 13.8 97   19 4 24.1 100.78     LegendNANA
07:00 16.3 14.7 90   20 8 24.1 100.85     Clear
08:00 18.7 14.6 76   20 5 24.1 100.87     LegendNANA
09:00 21.4 14.8 66   14 4 24.1 100.85 25   LegendNANA
10:00 23.5 13.0 51   18 9 24.1 100.82 26   Clear
11:00 24.6 13.2 49   7 5 24.1 100.83 28   LegendNANA
12:00 25.4 13.4 47   36 2 24.1 100.79 28   LegendNANA
13:00 25.8 12.1 42   20 5 24.1 100.73 28   Clear
14:00 26.9 14.0 44   8 7 24.1 100.72 30   LegendNANA
15:00 26.9 12.1 39   11 13 24.1 100.69 29   LegendNANA
16:00 26.7 14.6 47   9 13 24.1 100.67 30   Mainly Clear
17:00 25.9 13.6 46   10 8 24.1 100.64 29   LegendNANA
18:00 25.3 13.8 48   13 9 24.1 100.61 29   LegendNANA
19:00 23.1 14.4 58   14 5 24.1 100.62 27   Mainly Clear
20:00 20.6 15.1 70   10 5 24.1 100.65 25   LegendNANA
21:00 19.2 14.7 75   13 5 24.1 100.67     LegendNANA
22:00 18.2 14.2 77   11 4 24.1 100.68     Clear
23:00 16.9 13.9 83   36 1 24.1 100.70     LegendNANA

Notes on Data Quality.

Legend

  • E = Estimated
  • M = Missing
  • NA = Not Available*
  • [empty] = Indicates an unobserved value
Date modified: